Location: Sternwarte Stuttgart
(48.7670°N, 9.1830°E)
Time: 13:59:41
(UTC+02:00)

Meteor 2-10 - Pass Details

Date: 24 January 2019
Orbit: 739 x 868 km, 81.2° (Epoch: 21 April)

Event Time Altitude Azimuth Distance (km) Brightness Sun altitude
Rises 07:00:01 0° 208° (SSW) 3,318 7.2 -10.4°
Reaches altitude 10° 07:02:32 10° 215° (SW) 2,371 6.4 -10.0°
Maximum altitude 07:07:38 45° 288° (WNW) 1,057 4.3 -9.2°
Drops below altitude 10° 07:12:37 10° 1° (N) 2,309 6.3 -8.5°
Sets 07:15:03 0° 8° (N) 3,224 7.1 -8.1°
